Regional Weather Roundup
Issued by NWS Little Rock, AR

Home | Current Version | Previous Version | Graphics & Text | Print | Product List | Glossary On
Versions: 1 2 3 4 5 6 7 8 9 10 11 12 13 14 15 16 17 18 19 20 21 22 23 24 25 26 27 28 29 30 31 32 33 34 35 36 37 38 39 40 41 42 43 44 45 46 47 48 49 50
000
ASUS44 KLZK 050805
RWRLZK

WEATHER ROUNDUP FOR ARKANSAS
NATIONAL WEATHER SERVICE LITTLE ROCK AR
200 AM CST THU MAR 05 2015

NOTE: "FAIR" INDICATES FEW OR NO CLOUDS BELOW 12,000 FEET WITH NO
SIGNIFICANT WEATHER AND/OR OBSTRUCTIONS TO VISIBILITY.

ARZ001-003-010-029-050900-
NORTHWEST ARKANSAS

CITY           SKY/WX    TMP DP  RH WIND       PRES   REMARKS
FAYETTEVILLE   CLOUDY    21  15  78 CALM      30.37R
FORT SMITH     LGT SNOW  24  19  81 N12       30.42R WCI  13
HARRISON       CLOUDY    20  13  74 NW6       30.33F WCI  12
BENTONVILLE    CLOUDY    21  12  68 N8        30.37R WCI  12
ROGERS         CLOUDY    20  14  77 N5        30.37R WCI  13
SILOAM SPGS    CLOUDY    21  10  63 N9        30.40R WCI  11
HIGHFILL       CLOUDY    22  14  71 N9        30.36R WCI  12
$$

ARZ004-005-016-050900-
NORTH CENTRAL ARKANSAS

CITY           SKY/WX    TMP DP  RH WIND       PRES   REMARKS
BATESVILLE     CLOUDY    21  16  79 N6        30.34F WCI  14
FLIPPIN        PTCLDY    21  10  63 CALM      30.35S
MTN HOME       CLOUDY    20  14  77 N3        30.35F
$$

ARZ040-041-050900-
WEST CENTRAL ARKANSAS

CITY           SKY/WX    TMP DP  RH WIND       PRES   REMARKS
MENA           CLOUDY    28  25  86 CALM      30.31R VSB 1
MOUNT IDA      LGT SNOW  24  20  84 CALM      30.31R FOG
$$

ARZ009-017-025-026-028-050900-
NORTHEAST ARKANSAS

CITY           SKY/WX    TMP DP  RH WIND       PRES   REMARKS
CORNING        CLOUDY    23  12  63 N13       30.39R WCI  11
JONESBORO      FOG       19  17  92 N17G24    30.37R VSB 3/4 WCI   4
NEWPORT        LGT SNOW  20  19  96 N15       30.38R VSB 3/4 WCI   6
WALNUT RIDGE   CLOUDY    19  16  86 N13       30.38R WCI   7
BLYTHEVILLE    FOG       20  18  92 N26       30.33R VSB 3/4 WCI   2
$$

ARZ022-023-033-042-044-050900-
CENTRAL ARKANSAS

CITY           SKY/WX    TMP DP  RH WIND       PRES   REMARKS
LITTLE ROCK    HVY SNOW  23  19  85 N18       30.38R VSB 1/4 WCI   9
N LITTLE ROCK    N/A     21  21  98 N12G18    30.38R WCI   9
JACKSONVILLE   FLURRIES  22  18  85 N10G24    30.36R WCI  11
SEARCY         LGT SNOW  21  18  88 N18G25    30.37R FOG     WCI   6
HOT SPRINGS    LGT SNOW  24  19  81 NE12G20   30.34R WCI  13
RUSSELLVILLE   CLOUDY    24  17  74 N8        30.38R WCI  15
CLINTON        MIX PCPN  25  14  63 CALM      30.41R
$$

ARZ036-050900-
EAST ARKANSAS

CITY           SKY/WX    TMP DP  RH WIND       PRES   REMARKS
WEST MEMPHIS   FOG       21  19  92 N24G36    30.27R VSB 1/2 WCI   4
$$

ARZ050-053-066-070-073-050900-
SOUTHWEST ARKANSAS

CITY           SKY/WX    TMP DP  RH WIND       PRES   REMARKS
ARKADELPHIA    LGT SNOW  25  25 100 N13       30.33F VSB 3/4 WCI  14
CAMDEN         RAIN      27  25  93 CALM      30.32R
TEXARKANA      LGT SNOW  29  29 100 NE12      30.28R FOG     WCI  19
EL DORADO      LGT SNOW  30  27  88 N17G33    30.22F FOG     WCI  18
DE QUEEN       LGT SNOW  29  26  89 N10       30.34R VSB 3/4 WCI  20
$$

ARZ056-057-069-050900-
SOUTHEAST ARKANSAS

CITY           SKY/WX    TMP DP  RH WIND       PRES   REMARKS
PINE BLUFF     MIX PCPN  24  19  81 N18G36    30.33R WCI  10
STUTTGART      CLOUDY    23  19  86 N24G31    30.30R VSB 1   WCI   7
MONTICELLO     LGT SNOW  28  25  88 N8G22     30.24R FOG     WCI  20

$$




USA.gov is the U.S. government's official web portal to all federal, state and local government web resources and services.